CAPE
1203 1632 1770 1881 1839 1775 1805 1853 1879 2004 2200 2340 2365 2287 2233 2237 2218 2187 2212 2137 2028 1875 1524 1433 1234 1082 972 909 899 915 950 998 974 1047 1135 1173 972 1027 1144 1183 1198 757 1270
1205 1471 1634 1841 1877 1817 1819 1884 1942 1995 2096 2142 2187 2143 2094 2051 1989 1944 1937 1944 1924 1493 1455 1428 1631 1368 1222 1123 998 1018 1108 1073 1001 1078 893 1064 1315 1131 1118 1113 967 886 1104
1091 1235 1319 1482 1757 2034 1981 2001 2066 2118 2063 2030 2069 2049 2054 2045 1856 1525 1427 1360 1356 1313 1189 1177 1245 1223 1358 1228 1193 1205 1111 1048 943 894 785 471 756 1193 961 1225 1242 1050 1031
974 973 977 1091 1313 1607 1691 1954 2192 2193 2124 2150 2126 1748 1515 1357 1175 851 602 659 566 467 580 554 547 448 400 407 639 621 618 794 869 882 350 303 350 1476 1450 1523 1388 1365 1076
666 528 618 741 923 1177 1250 1419 1456 1513 1680 1699 1645 1374 1133 821 598 373 365 461 344 96 60 37 41 41 41 81 100 76 106 122 249 138 255 701 815 1023 1198 1618 1653 1399 1073
703 358 509 580 771 819 831 859 807 836 1017 1186 1081 725 597 444 490 518 545 244 131 99 31 1 0 0 0 1 21 34 54 51 23 0 445 850 949 1513 1220 1279 1581 1456 1313
395 229 428 350 475 454 523 625 665 606 657 559 525 414 329 329 352 184 158 62 0 0 0 0 0 0 0 0 0 0 0 0 55 30 299 457 853 1190 1315 1413 1257 1371 1213
252 124 528 152 88 110 126 188 180 253 349 325 195 277 190 129 47 0 0 0 0 0 0 0 0 0 0 0 0 0 0 0 0 4 193 379 440 817 1056 873 951 1325 1554
175 228 405 95 106 296 191 229 348 404 404 323 179 53 3 0 0 0 0 0 0 0 0 0 0 0 0 0 0 0 0 0 0 3 42 70 141 143 192 339 450 527 698
98 397 173 257 463 491 467 417 310 314 209 21 0 0 0 0 0 0 0 0 0 0 0 0 0 0 0 0 0 0 0 0 0 0 0 0 0 0 26 37 48 156 424
281 340 497 548 306 335 420 458 353 305 169 8 0 0 0 0 0 0 0 0 0 0 0 0 0 0 0 0 0 0 0 0 0 0 0 0 0 0 4 11 29 118 288
431 377 400 362 342 499 385 461 432 315 120 0 0 0 0 0 0 0 0 0 0 0 0 0 0 0 0 0 0 0 0 0 0 0 0 0 0 0 2 7 32 28 22
513 367 271 143 508 377 395 397 293 152 2 0 0 0 0 0 0 0 0 0 0 0 0 0 0 0 0 0 0 0 0 0 0 0 0 0 0 0 2 2 11 4 19
333 198 119 18 261 370 319 167 32 0 0 0 0 0 0 0 0 0 0 0 0 0 0 0 0 0 0 0 0 0 0 0 0 0 0 0 0 0 0 6 3 1 0
0 109 133 76 201 225 27 0 0 0 0 0 0 0 0 0 0 0 0 0 0 0 0 0 0 0 0 0 0 0 0 0 0 0 0 0 0 0 0 2 20 27 55
0 0 0 51 167 15 0 0 0 0 0 0 0 0 0 0 0 0 0 0 0 0 0 0 0 0 0 0 0 0 0 0 0 0 0 0 0 0 0 0 7 3 18
11 0 0 17 19 0 0 0 0 0 0 0 0 0 0 0 0 0 0 0 0 0 0 0 0 0 0 0 0 0 0 0 0 0 0 0 0 0 0 0 0 0 15
71 4 0 1 0 0 0 0 0 0 0 0 0 0 0 0 0 0 0 0 0 0 0 0 0 0 0 0 0 0 0 0 0 0 0 0 0 0 0 0 0 0 0
132 6 0 0 0 0 0 0 0 0 0 0 0 0 0 0 0 0 0 0 0 0 0 0 0 0 0 0 0 0 0 0 0 0 0 0 0 0 0 0 0 0 0
185 2 0 0 0 0 0 0 0 0 0 0 0 0 0 0 0 0 0 0 0 0 0 0 0 0 0 0 0 0 0 0 0 0 0 0 0 0 0 0 0 0 0
110 2 0 0 0 0 0 0 0 0 0 0 0 0 0 0 0 0 0 0 0 0 0 0 0 0 0 0 0 0 0 0 0 0 0 0 0 0 0 0 0 0 0
49 0 0 0 0 0 0 0 0 0 0 0 0 0 0 0 0 0 0 0 0 0 0 0 0 0 0 0 0 0 0 0 0 0 0 0 0 0 0 0 0 0 0
94 0 0 0 0 0 0 0 0 0 0 0 0 0 0 0 0 0 0 0 0 0 0 0 0 0 0 0 0 0 0 0 0 0 0 0 0 0 0 0 0 0 0
130 31 0 0 0 0 0 0 0 0 0 0 0 0 0 0 0 0 0 0 0 0 0 0 0 0 0 0 0 0 0 0 0 0 0 0 0 0 0 0 0 0 0
141 45 2 0 0 0 0 0 0 0 0 0 0 0 0 0 0 0 0 0 0 0 0 0 0 0 0 0 0 0 0 0 0 0 0 0 0 0 0 0 0 0 0
117 43 0 0 0 0 0 0 0 0 0 0 0 0 0 0 0 0 0 0 0 0 0 0 0 0 0 0 0 0 0 0 0 0 0 0 0 0 0 0 0 0 0
CIN
-260 -198 -166 -111 -112 -109 -85 -67 -49 -21 -0 -0 -0 -0 -0 -0 -0 -0 -0 -0 -0 -0 -0 -0 -1 -4 -10 -11 -19 -20 -19 -27 -41 -40 -32 -26 -30 -23 -29 -37 -15 -27 -2
-291 -183 -168 -104 -78 -77 -60 -42 -27 -11 -0 -0 -0 -0 -0 -0 -0 -0 -0 -0 -0 -0 -0 -0 -0 -0 -0 -1 -12 -16 -9 -15 -31 -28 -40 -32 -10 -22 -14 -29 -44 -32 -7
-272 -228 -204 -152 -68 -20 -19 -11 -3 -0 -0 -0 -0 -0 -0 -0 -0 -0 -0 -0 -0 -0 -0 -0 -0 -0 -0 -0 -0 -3 -15 -31 -57 -65 -61 -15 -45 -22 -27 -24 -24 -25 -11
-304 -265 -249 -220 -125 -62 -33 -7 -0 -0 -0 -0 -0 -0 -0 -1 -15 -43 -86 -75 -71 -81 -51 -38 -42 -62 -80 -80 -43 -47 -56 -59 -70 -87 -123 -91 -60 -7 -27 -34 -31 -22 -15
-368 -375 -335 -312 -231 -144 -102 -63 -47 -34 -15 -4 -3 -16 -22 -47 -98 -150 -122 -97 -104 -203 -159 -120 -119 -114 -136 -165 -152 -163 -167 -172 -156 -149 -101 -68 -58 -19 -13 -35 -36 -28 -25
-335 -417 -336 -297 -216 -183 -138 -110 -121 -103 -76 -43 -49 -97 -86 -118 -103 -94 -78 -134 -150 -161 -176 -3 -0 -0 -4 -4 -175 -117 -102 -114 -215 -1 -73 -62 -31 -8 -7 -13 -21 -29 -15
-426 -449 -348 -362 -278 -244 -171 -108 -88 -92 -100 -114 -126 -153 -163 -141 -125 -140 -136 -174 -0 -0 -0 -0 -0 -0 -0 -0 -0 -0 -0 -0 -52 -73 -59 -20 -31 -4 -0 -0 -5 -2 -26
-443 -489 -296 -434 -491 -409 -327 -264 -243 -190 -149 -120 -143 -178 -171 -177 -221 -0 -0 -0 -0 -0 -0 -0 -0 -0 -0 -0 -0 -0 -0 -0 -0 -5 -57 -18 -14 -5 -0 -8 -4 -0 -0
-430 -387 -296 -434 -405 -243 -245 -207 -146 -106 -105 -114 -128 -188 -51 -0 -0 -0 -0 -0 -0 -0 -0 -0 -0 -0 -0 -0 -0 -0 -0 -0 -0 -6 -59 -68 -23 -19 -15 -11 -10 -28 -24
-434 -300 -360 -273 -157 -137 -125 -107 -121 -86 -70 -57 -0 -0 -0 -0 -0 -0 -0 -0 -0 -0 -0 -0 -0 -0 -0 -0 -0 -0 -0 -0 -0 -0 -0 -0 -0 -0 -40 -49 -33 -53 -30
-318 -272 -208 -155 -178 -160 -120 -87 -76 -36 -39 -46 -0 -0 -0 -0 -0 -0 -0 -0 -0 -0 -0 -0 -0 -0 -0 -0 -0 -0 -0 -0 -0 -0 -0 -0 -0 -0 -0 -0 -79 -75 -49
-263 -260 -222 -177 -169 -120 -101 -76 -50 -41 -69 -0 -0 -0 -0 -0 -0 -0 -0 -0 -0 -0 -0 -0 -0 -0 -0 -0 -0 -0 -0 -0 -0 -0 -0 -0 -0 -0 -0 -0 -0 -0 -0
-181 -214 -227 -229 -120 -105 -87 -79 -66 -52 -12 -0 -0 -0 -0 -0 -0 -0 -0 -0 -0 -0 -0 -0 -0 -0 -0 -0 -0 -0 -0 -0 -0 -0 -0 -0 -0 -0 -0 -0 -2 -0 -0
-182 -214 -239 -266 -155 -94 -93 -79 -67 -13 -0 -0 -0 -0 -0 -0 -0 -0 -0 -0 -0 -0 -0 -0 -0 -0 -0 -0 -0 -0 -0 -0 -0 -0 -0 -0 -0 -0 -0 -0 -0 -0 -0
-0 -267 -225 -191 -127 -98 -135 -0 -0 -0 -0 -0 -0 -0 -0 -0 -0 -0 -0 -0 -0 -0 -0 -0 -0 -0 -0 -0 -0 -0 -0 -0 -0 -0 -0 -0 -0 -0 -0 -0 -0 -0 -0
-0 -0 -0 -173 -95 -134 -0 -0 -0 -0 -0 -0 -0 -0 -0 -0 -0 -0 -0 -0 -0 -0 -0 -0 -0 -0 -0 -0 -0 -0 -0 -0 -0 -0 -0 -0 -0 -0 -0 -0 -0 -0 -0
-256 -0 -0 -154 -140 -0 -0 -0 -0 -0 -0 -0 -0 -0 -0 -0 -0 -0 -0 -0 -0 -0 -0 -0 -0 -0 -0 -0 -0 -0 -0 -0 -0 -0 -0 -0 -0 -0 -0 -0 -0 -0 -0
-172 -88 -0 -40 -0 -0 -0 -0 -0 -0 -0 -0 -0 -0 -0 -0 -0 -0 -0 -0 -0 -0 -0 -0 -0 -0 -0 -0 -0 -0 -0 -0 -0 -0 -0 -0 -0 -0 -0 -0 -0 -0 -0
-125 -233 -0 -0 -0 -0 -0 -0 -0 -0 -0 -0 -0 -0 -0 -0 -0 -0 -0 -0 -0 -0 -0 -0 -0 -0 -0 -0 -0 -0 -0 -0 -0 -0 -0 -0 -0 -0 -0 -0 -0 -0 -0
-104 -54 -0 -0 -0 -0 -0 -0 -0 -0 -0 -0 -0 -0 -0 -0 -0 -0 -0 -0 -0 -0 -0 -0 -0 -0 -0 -0 -0 -0 -0 -0 -0 -0 -0 -0 -0 -0 -0 -0 -0 -0 -0
-123 -51 -0 -0 -0 -0 -0 -0 -0 -0 -0 -0 -0 -0 -0 -0 -0 -0 -0 -0 -0 -0 -0 -0 -0 -0 -0 -0 -0 -0 -0 -0 -0 -0 -0 -0 -0 -0 -0 -0 -0 -0 -0
-88 -0 -0 -0 -0 -0 -0 -0 -0 -0 -0 -0 -0 -0 -0 -0 -0 -0 -0 -0 -0 -0 -0 -0 -0 -0 -0 -0 -0 -0 -0 -0 -0 -0 -0 -0 -0 -0 -0 -0 -0 -0 -0
-95 -0 -0 -0 -0 -0 -0 -0 -0 -0 -0 -0 -0 -0 -0 -0 -0 -0 -0 -0 -0 -0 -0 -0 -0 -0 -0 -0 -0 -0 -0 -0 -0 -0 -0 -0 -0 -0 -0 -0 -0 -0 -0
-85 -108 -0 -0 -0 -0 -0 -0 -0 -0 -0 -0 -0 -0 -0 -0 -0 -0 -0 -0 -0 -0 -0 -0 -0 -0 -0 -0 -0 -0 -0 -0 -0 -0 -0 -0 -0 -0 -0 -0 -0 -0 -0
-87 -110 -158 -0 -0 -0 -0 -0 -0 -0 -0 -0 -0 -0 -0 -0 -0 -0 -0 -0 -0 -0 -0 -0 -0 -0 -0 -0 -0 -0 -0 -0 -0 -0 -0 -0 -0 -0 -0 -0 -0 -0 -0
-95 -114 -0 -0 -0 -0 -0 -0 -0 -0 -0 -0 -0 -0 -0 -0 -0 -0 -0 -0 -0 -0 -0 -0 -0 -0 -0 -0 -0 -0 -0 -0 -0 -0 -0 -0 -0 -0 -0 -0 -0 -0 -0
Wind_Speed
30 31 34 32 33 34 34 35 34 34 33 34 33 33 32 29 28 26 23 21 21 21 21 19 18 18 19 18 17 15 14 12 12 11 11 10 11 13 14 19 21 18 18
32 35 39 34 34 35 36 36 38 39 36 36 35 33 32 29 27 25 23 21 21 21 20 18 16 17 19 18 17 16 14 12 11 11 11 10 7 9 14 18 22 20 20
42 44 41 40 37 37 38 39 40 40 39 39 35 33 31 31 31 30 27 25 25 25 23 21 19 17 18 17 15 15 14 13 11 9 11 9 8 7 12 17 21 23 21
38 38 38 43 40 41 41 43 42 40 40 40 39 38 35 34 32 28 26 26 23 21 21 19 18 17 19 19 17 17 15 14 11 11 12 6 8 17 18 18 21 22 22
41 36 39 44 44 44 44 45 47 47 49 45 44 39 37 35 31 27 27 27 24 nan nan nan nan nan nan nan 18 nan 16 15 14 18 10 10 16 22 17 23 26 23 26
41 39 41 44 45 44 46 47 48 48 44 44 43 39 35 34 29 29 29 28 26 nan nan nan nan nan nan nan nan nan nan nan nan nan 18 20 19 29 24 23 27 28 26
39 39 39 45 46 45 47 47 48 46 42 43 42 40 38 35 31 30 28 nan nan nan nan nan nan nan nan nan nan nan nan nan nan nan 24 23 23 25 30 29 27 25 27
40 38 39 46 nan 47 47 46 46 43 42 40 40 40 37 37 nan nan nan nan nan nan nan nan nan nan nan nan nan nan nan nan nan nan 26 23 29 31 34 34 31 31 30
39 39 39 nan 45 47 46 45 43 40 38 37 34 nan nan nan nan nan nan nan nan nan nan nan nan nan nan nan nan nan nan nan nan nan nan nan 34 33 31 32 29 27 30
nan 38 40 39 40 38 37 42 41 38 36 nan nan nan nan nan nan nan nan nan nan nan nan nan nan nan nan nan nan nan nan nan nan nan nan nan nan nan nan nan nan 28 29
37 38 38 39 39 40 39 38 39 40 36 nan nan nan nan nan nan nan nan nan nan nan nan nan nan nan nan nan nan nan nan nan nan nan nan nan nan nan nan nan nan 41 40
38 38 36 40 42 40 41 35 33 34 31 nan nan nan nan nan nan nan nan nan nan nan nan nan nan nan nan nan nan nan nan nan nan nan nan nan nan nan nan nan nan nan nan
37 36 38 43 43 39 36 30 30 30 nan nan nan nan nan nan nan nan nan nan nan nan nan nan nan nan nan nan nan nan nan nan nan nan nan nan nan nan nan nan nan nan nan
33 30 32 nan 34 33 34 32 nan nan nan nan nan nan nan nan nan nan nan nan nan nan nan nan nan nan nan nan nan nan nan nan nan nan nan nan nan nan nan nan nan nan nan
nan 31 34 nan 36 36 nan nan nan nan nan nan nan nan nan nan nan nan nan nan nan nan nan nan nan nan nan nan nan nan nan nan nan nan nan nan nan nan nan nan nan nan nan
nan nan nan nan 41 nan nan nan nan nan nan nan nan nan nan nan nan nan nan nan nan nan nan nan nan nan nan nan nan nan nan nan nan nan nan nan nan nan nan nan nan nan nan
nan nan nan nan nan nan nan nan nan nan nan nan nan nan nan nan nan nan nan nan nan nan nan nan nan nan nan nan nan nan nan nan nan nan nan nan nan nan nan nan nan nan nan
nan nan nan nan nan nan nan nan nan nan nan nan nan nan nan nan nan nan nan nan nan nan nan nan nan nan nan nan nan nan nan nan nan nan nan nan nan nan nan nan nan nan nan
52 nan nan nan nan nan nan nan nan nan nan nan nan nan nan nan nan nan nan nan nan nan nan nan nan nan nan nan nan nan nan nan nan nan nan nan nan nan nan nan nan nan nan
55 nan nan nan nan nan nan nan nan nan nan nan nan nan nan nan nan nan nan nan nan nan nan nan nan nan nan nan nan nan nan nan nan nan nan nan nan nan nan nan nan nan nan
57 nan nan nan nan nan nan nan nan nan nan nan nan nan nan nan nan nan nan nan nan nan nan nan nan nan nan nan nan nan nan nan nan nan nan nan nan nan nan nan nan nan nan
nan nan nan nan nan nan nan nan nan nan nan nan nan nan nan nan nan nan nan nan nan nan nan nan nan nan nan nan nan nan nan nan nan nan nan nan nan nan nan nan nan nan nan
nan nan nan nan nan nan nan nan nan nan nan nan nan nan nan nan nan nan nan nan nan nan nan nan nan nan nan nan nan nan nan nan nan nan nan nan nan nan nan nan nan nan nan
50 nan nan nan nan nan nan nan nan nan nan nan nan nan nan nan nan nan nan nan nan nan nan nan nan nan nan nan nan nan nan nan nan nan nan nan nan nan nan nan nan nan nan
61 nan nan nan nan nan nan nan nan nan nan nan nan nan nan nan nan nan nan nan nan nan nan nan nan nan nan nan nan nan nan nan nan nan nan nan nan nan nan nan nan nan nan
62 nan nan nan nan nan nan nan nan nan nan nan nan nan nan nan nan nan nan nan nan nan nan nan nan nan nan nan nan nan nan nan nan nan nan nan nan nan nan nan nan nan nan
Wind_Direction
262 273 283 286 289 292 297 296 297 296 295 297 297 292 288 282 274 268 264 261 263 262 259 259 261 260 255 249 246 245 246 240 238 232 231 231 248 251 257 260 261 253 252
278 278 274 285 292 292 296 302 299 300 298 296 296 293 289 282 274 266 262 258 254 254 254 249 251 262 260 259 255 251 249 243 234 225 219 219 230 260 252 250 260 262 257
271 273 274 279 285 286 294 299 300 300 299 298 293 288 285 280 273 266 263 258 253 252 251 250 245 247 253 255 255 262 262 260 247 232 226 257 277 300 266 256 257 258 259
273 270 274 278 284 286 286 289 293 295 296 294 290 283 278 275 272 271 271 269 264 261 255 250 247 248 249 250 248 247 243 241 244 229 262 276 306 314 301 283 262 264 258
272 278 278 277 277 277 281 285 289 288 288 287 289 284 282 278 276 274 269 263 261 nan nan nan nan nan nan nan 252 nan 247 237 232 241 247 256 292 299 298 283 275 266 262
270 273 277 279 278 280 283 287 287 290 287 289 287 284 281 273 271 267 265 264 263 nan nan nan nan nan nan nan nan nan nan nan nan nan 265 246 256 267 260 263 270 268 265
271 274 277 277 274 281 284 288 289 289 289 286 283 280 277 275 272 270 266 nan nan nan nan nan nan nan nan nan nan nan nan nan nan nan 270 266 260 259 259 251 254 259 266
276 275 275 278 nan 282 285 282 285 286 288 285 281 280 281 282 nan nan nan nan nan nan nan nan nan nan nan nan nan nan nan nan nan nan 275 272 263 259 255 253 251 252 252
275 275 275 nan 281 283 283 284 286 285 285 285 288 nan nan nan nan nan nan nan nan nan nan nan nan nan nan nan nan nan nan nan nan nan nan nan 264 261 258 260 254 250 257
nan 275 276 276 277 277 281 288 285 286 288 nan nan nan nan nan nan nan nan nan nan nan nan nan nan nan nan nan nan nan nan nan nan nan nan nan nan nan nan nan nan 258 255
280 281 281 283 283 282 285 289 289 291 292 nan nan nan nan nan nan nan nan nan nan nan nan nan nan nan nan nan nan nan nan nan nan nan nan nan nan nan nan nan nan 257 254
290 290 288 287 288 291 290 289 288 287 285 nan nan nan nan nan nan nan nan nan nan nan nan nan nan nan nan nan nan nan nan nan nan nan nan nan nan nan nan nan nan nan nan
285 284 290 291 294 294 290 294 288 284 nan nan nan nan nan nan nan nan nan nan nan nan nan nan nan nan nan nan nan nan nan nan nan nan nan nan nan nan nan nan nan nan nan
290 288 284 nan 288 289 288 286 nan nan nan nan nan nan nan nan nan nan nan nan nan nan nan nan nan nan nan nan nan nan nan nan nan nan nan nan nan nan nan nan nan nan nan
nan 293 287 nan 277 276 nan nan nan nan nan nan nan nan nan nan nan nan nan nan nan nan nan nan nan nan nan nan nan nan nan nan nan nan nan nan nan nan nan nan nan nan nan
nan nan nan nan 281 nan nan nan nan nan nan nan nan nan nan nan nan nan nan nan nan nan nan nan nan nan nan nan nan nan nan nan nan nan nan nan nan nan nan nan nan nan nan
nan nan nan nan nan nan nan nan nan nan nan nan nan nan nan nan nan nan nan nan nan nan nan nan nan nan nan nan nan nan nan nan nan nan nan nan nan nan nan nan nan nan nan
nan nan nan nan nan nan nan nan nan nan nan nan nan nan nan nan nan nan nan nan nan nan nan nan nan nan nan nan nan nan nan nan nan nan nan nan nan nan nan nan nan nan nan
296 nan nan nan nan nan nan nan nan nan nan nan nan nan nan nan nan nan nan nan nan nan nan nan nan nan nan nan nan nan nan nan nan nan nan nan nan nan nan nan nan nan nan
297 nan nan nan nan nan nan nan nan nan nan nan nan nan nan nan nan nan nan nan nan nan nan nan nan nan nan nan nan nan nan nan nan nan nan nan nan nan nan nan nan nan nan
295 nan nan nan nan nan nan nan nan nan nan nan nan nan nan nan nan nan nan nan nan nan nan nan nan nan nan nan nan nan nan nan nan nan nan nan nan nan nan nan nan nan nan
nan nan nan nan nan nan nan nan nan nan nan nan nan nan nan nan nan nan nan nan nan nan nan nan nan nan nan nan nan nan nan nan nan nan nan nan nan nan nan nan nan nan nan
nan nan nan nan nan nan nan nan nan nan nan nan nan nan nan nan nan nan nan nan nan nan nan nan nan nan nan nan nan nan nan nan nan nan nan nan nan nan nan nan nan nan nan
300 nan nan nan nan nan nan nan nan nan nan nan nan nan nan nan nan nan nan nan nan nan nan nan nan nan nan nan nan nan nan nan nan nan nan nan nan nan nan nan nan nan nan
294 nan nan nan nan nan nan nan nan nan nan nan nan nan nan nan nan nan nan nan nan nan nan nan nan nan nan nan nan nan nan nan nan nan nan nan nan nan nan nan nan nan nan
288 nan nan nan nan nan nan nan nan nan nan nan nan nan nan nan nan nan nan nan nan nan nan nan nan nan nan nan nan nan nan nan nan nan nan nan nan nan nan nan nan nan nan